CAPE
0 0 0 0 0 0 0 0 0 0 0 0 0 0 0 0 0 0 0 0 0 0
0 0 0 0 0 0 0 0 0 0 0 0 0 0 0 0 0 0 0 0 0 0
0 0 0 0 0 0 0 0 0 0 0 0 0 0 0 0 0 0 0 0 0 0
0 0 0 0 0 0 0 0 0 0 0 0 0 0 0 0 0 0 0 0 0 0
0 0 0 0 0 0 0 0 0 0 0 0 0 0 0 0 0 0 0 0 0 0
0 0 0 0 0 0 0 0 0 0 0 0 0 0 0 0 0 0 0 0 0 1
0 0 0 0 0 0 0 0 0 0 0 0 0 0 0 0 0 0 0 0 2 5
0 0 0 0 0 0 0 0 0 0 0 0 0 0 0 0 6 6 2 2 2 4
0 0 0 0 0 0 0 0 0 0 0 0 0 0 3 4 18 25 17 26 35 33
0 0 0 0 0 0 0 0 0 0 0 0 0 3 11 28 19 14 10 10 8 15
0 0 0 0 0 0 0 0 0 0 0 0 0 6 14 21 14 12 8 4 1 2
0 0 0 0 0 0 0 0 0 0 0 0 0 3 13 15 14 4 6 2 4 1
0 0 0 0 0 0 0 0 0 0 1 3 0 0 10 18 14 0 7 0 0 3
0 0 0 0 0 0 0 0 0 0 0 0 0 2 15 12 16 11 4 1 0 0
CIN
0 0 0 0 0 0 0 0 0 0 0 0 0 0 0 0 0 0 0 0 0 0
0 0 0 0 0 0 0 0 0 0 0 0 0 0 0 0 0 0 0 0 0 0
0 0 0 0 0 0 0 0 0 0 0 0 0 0 0 0 0 0 0 0 0 0
0 0 0 0 0 0 0 0 0 0 0 0 0 0 0 0 0 0 0 0 0 0
0 0 0 0 0 0 0 0 0 0 0 0 0 0 0 0 0 0 0 0 0 0
0 0 0 0 0 0 0 0 0 0 0 0 0 0 0 0 0 0 0 0 -7 -5
0 0 0 0 0 0 0 0 0 0 0 0 0 0 0 0 0 0 0 -10 -10 -3
0 0 0 0 0 0 0 0 0 0 0 0 0 0 0 -2 -4 -7 -9 -14 -11 -4
0 0 0 0 0 0 0 0 0 0 0 0 0 0 -1 -2 -1 0 -1 0 0 0
0 0 0 0 0 0 0 0 0 0 0 0 0 -2 -1 -1 -2 0 -1 0 0 0
0 0 0 0 0 0 0 0 0 0 0 0 0 -2 -1 -1 0 0 0 -2 0 0
0 0 0 0 0 0 0 0 0 0 0 0 0 -1 0 0 0 0 0 0 0 0
0 0 0 0 0 0 0 0 0 0 -26 -13 0 0 0 0 0 0 -1 0 -1 0
0 0 0 0 0 0 0 0 0 0 0 0 0 -1 0 0 0 0 -1 0 0 0
Wind_Speed
19 21 23 24 25 27 28 30 31 34 35 37 38 40 39 39 39 39 40 41 41 42
23 25 26 27 28 29 31 32 34 36 38 38 39 39 39 40 41 41 41 42 42 42
26 28 28 29 31 32 34 35 37 38 39 40 41 41 41 42 42 42 42 41 41 41
30 31 31 31 33 34 35 36 38 40 41 42 42 42 43 42 42 42 42 41 41 41
29 30 31 33 34 35 38 38 39 40 42 43 43 42 42 43 42 42 43 41 38 39
31 31 32 33 35 36 37 39 40 41 42 43 42 42 41 38 38 40 42 43 42 41
32 31 33 34 35 36 37 40 41 41 41 41 41 40 37 38 41 42 38 37 36 35
31 33 34 34 35 37 38 39 38 40 39 37 38 37 40 41 41 38 37 34 31 31
34 34 33 35 37 38 38 38 38 39 37 39 39 43 40 38 36 33 35 33 32 31
32 32 34 36 36 38 37 36 38 37 36 39 36 37 37 37 33 34 31 29 26 24
31 34 36 36 37 36 35 35 34 31 34 36 32 34 38 37 35 30 26 23 26 28
32 35 36 37 36 34 34 34 32 33 35 33 31 31 37 36 29 27 25 23 26 26
33 34 35 34 33 32 32 34 34 34 32 29 24 16 12 27 28 25 22 20 21 27
32 33 32 31 32 33 37 36 33 29 27 21 17 12 13 28 24 22 20 21 24 26
Wind_Direction
331 327 325 325 324 322 321 320 319 318 317 316 316 315 315 314 312 311 309 308 306 305
335 330 327 327 326 324 322 320 318 317 316 316 315 314 313 311 310 309 308 307 306 304
333 330 329 328 326 325 323 322 321 319 318 316 315 314 313 311 310 309 308 308 306 305
330 328 328 327 326 325 324 322 320 319 318 317 315 315 313 312 312 310 309 308 306 305
332 331 329 327 326 325 323 323 322 321 319 318 317 316 314 312 312 311 309 309 308 306
332 332 330 329 327 327 326 325 323 322 320 319 318 317 315 315 314 313 311 308 305 304
334 334 332 330 330 329 328 326 324 324 323 322 321 320 318 316 314 313 313 312 310 308
334 333 332 333 332 331 330 329 328 326 326 327 325 324 320 317 316 315 314 314 313 311
334 335 335 334 333 333 332 332 331 330 329 327 326 322 321 321 320 319 318 317 316 315
337 337 337 336 336 334 333 334 333 332 331 330 331 329 326 324 324 323 323 323 323 321
339 337 337 337 336 336 336 336 337 338 336 334 335 332 327 326 327 330 331 329 327 324
340 339 339 338 337 338 338 339 340 338 337 337 337 336 328 328 337 336 335 334 332 329
341 340 339 340 341 342 343 341 340 340 341 342 345 344 331 341 339 341 342 341 338 332
342 342 343 345 345 344 341 342 343 346 347 350 352 340 330 344 346 346 343 346 344 341